Flag for Vietnam Weather past 2 weeks in Ho Chi Minh, Vietnam

Now
77 °F

Passing clouds.


Feels Like: 79 °F
Forecast: 71 / 91 °F
Wind: 9 mph from Southeast

Location: Ho Chi Minh

Current Time: Jan 28, 2015 at 10:04:58 PM

Latest Report: Jan 28, 2015 at 9:30 PM


Visibility: N/A

Pressure: 29.89 "Hg

Humidity: 69%

Dew point: 66 °F

Location of Ho Chi MinhLocation

Historic Weather in Ho Chi Minh — Graph

°F

Ho Chi Minh temperature yesterday

Maximum temperature yesterday: 90 °F (at 1:00 PM)
Minimum temperature yesterday: 72 °F (at 3:00 AM)
Average temperature yesterday: 79 °F

Past Weeks' High & Low Weather Summary

 TemperatureHumidityPressure
High90 °F (Jan 15, 2:30 PM)94% (Jan 16, 4:30 AM)30.07 "Hg (Jan 16, 4:30 AM)
Low64 °F (Jan 15, 6:00 AM)26% (Jan 15, 2:30 PM)29.80 "Hg (Jan 27, 2:30 PM)
Average78 °F65%29.93 "Hg
* Reported Jan 13 9:00 PM — Jan 28 9:00 PM, Ho Chi Minh, Weather by CustomWeather, © 2014

Note: Actual official high and low records may vary slightly from our data, if they occured in-between our weather recording intervals... More about our weather records

Advertising

Ho Chi Minh weather history for previous 24 hours

 ConditionsComfort  
Time TempWeatherWind HumidityBarometerVisibility
9:00 PM
Jan 28
77 °FPassing clouds.9 mph69%29.89 "HgN/A
8:30 PM77 °FPassing clouds.8 mph69%29.89 "HgN/A
8:00 PM77 °FPassing clouds.8 mph65%29.89 "HgN/A
7:30 PM79 °FPassing clouds.8 mph61%29.86 "HgN/A
7:00 PM79 °FPassing clouds.8 mph58%29.86 "HgN/A
6:30 PM81 °FPassing clouds.10 mph51%29.83 "HgN/A
6:00 PM81 °FPassing clouds.7 mph54%29.83 "HgN/A
5:30 PM82 °FPassing clouds.9 mph51%29.83 "HgN/A
5:00 PM82 °FScattered clouds.12 mph55%29.80 "Hg5 mi
4:30 PM84 °FPartly sunny.10 mph51%29.80 "Hg5 mi
4:00 PM86 °FPartly sunny.8 mph52%29.80 "Hg5 mi
3:30 PM88 °FPartly sunny.7 mph49%29.80 "Hg5 mi
3:00 PM88 °FPartly sunny.2 mph46%29.80 "Hg5 mi
2:30 PM88 °FScattered clouds.3 mph43%29.80 "Hg5 mi
2:00 PM90 °FScattered clouds.5 mph43%29.80 "Hg5 mi
1:00 PM88 °FScattered clouds.3 mph46%29.83 "Hg5 mi
12:30 PM86 °FScattered clouds.2 mph49%29.86 "Hg5 mi
12:00 PM86 °FPassing clouds.5 mph46%29.86 "Hg4 mi
11:30 AM86 °FPassing clouds.5 mph49%29.89 "Hg4 mi
11:00 AM84 °FPassing clouds.6 mph48%29.89 "Hg4 mi
10:30 AM84 °FPassing clouds.6 mph55%29.92 "Hg4 mi
10:00 AM81 °FPassing clouds.5 mph62%29.92 "Hg4 mi
9:30 AM81 °FPassing clouds.3 mph62%29.92 "Hg4 mi
9:00 AM77 °FPassing clouds.3 mph69%29.92 "Hg4 mi
8:30 AM77 °FPassing clouds.2 mph74%29.92 "Hg4 mi
8:00 AM75 °FPassing clouds.2 mph78%29.92 "Hg5 mi
7:30 AM73 °FPassing clouds.2 mph83%29.92 "Hg5 mi
7:00 AM72 °FPassing clouds.3 mph88%29.89 "Hg5 mi
6:30 AM70 °FPassing clouds.1 mph88%29.89 "Hg5 mi
6:00 AM72 °FPassing clouds.No wind83%29.86 "Hg5 mi
5:30 AM70 °FPassing clouds.3 mph83%29.86 "Hg5 mi
5:00 AM70 °FPassing clouds.2 mph88%29.83 "Hg5 mi
4:30 AM70 °FPassing clouds.2 mph88%29.83 "HgN/A
4:00 AM72 °FPassing clouds.1 mph83%29.83 "HgN/A
3:30 AM73 °FPassing clouds.3 mph78%29.83 "HgN/A
3:00 AM73 °FPassing clouds.2 mph78%29.83 "HgN/A
2:30 AM72 °FPassing clouds.3 mph83%29.83 "HgN/A
2:00 AM73 °FPassing clouds.1 mph83%29.86 "HgN/A
1:30 AM73 °FPassing clouds.2 mph83%29.86 "HgN/A
1:00 AM75 °FPassing clouds.2 mph78%29.86 "HgN/A
12:30 AM77 °FPassing clouds.7 mph65%29.86 "HgN/A
12:00 AM77 °FPassing clouds.8 mph65%29.86 "HgN/A
11:30 PM
Jan 27
77 °FPassing clouds.8 mph65%29.86 "HgN/A
11:00 PM77 °FPassing clouds.7 mph65%29.86 "HgN/A
10:30 PM77 °FPassing clouds.8 mph65%29.89 "HgN/A
10:00 PM77 °FPassing clouds.9 mph65%29.89 "HgN/A
Weather by CustomWeather, © 2014

See weather overviewHow to use our weather pages